www.pogodaiklimat.ru

Погода и климат >> Архив погоды >> Россия >> Приморский край >> Партизанск


ПОГОДА в Партизанске

  • Прогноз погоды в Партизанске
  • Монитор погоды в Партизанске

АРХИВ ПОГОДЫ в Партизанске

Время (UTC), дата Ветер
(напр.,м/с)
 
Видим.   Явления Облачность Т
(С)
Тd
(С)
f
(%)
Тe
(С)
Тes
(С)
Комфортность P
(гПа)
Po
(гПа)
Тmin
(С)
Tmax
(С)
R
(мм)
R24
(мм)
S
(см)
12 17.03 Ю 3 50 км ясно -0.4 -8.5 54 -5 -5 1018.6 992.7
15 17.03 С 1 50 км ясно -0.8 -8.8 55 -2 -2 1018.5 992.6
18 17.03 С 1 50 км ясно -1.2 -8.5 58 -3 -3 1017.9 992.0
21 17.03 ЮВ 1 50 км ясно -3.5 -8.6 68 -5 -5 1016.9 990.7 -3.3 0
00 18.03 С 1 50 км 9/9 300 м
[St]
-1.2 -6.4 68 -3 -2 1015.8 989.9 -4.8
03 18.03 Ю 8-12
{13}
50 км 3/1 600 м
[Cu hum Ci fib]
+6.0 0.0 65 +1 +3 1011.8 986.6
06 18.03 Ю 9-15
{15}
50 км 1/0
[Ci fib]
+8.2 -3.7 43 +4 +4 1009.0 984.1
09 18.03 Ю 6
{15}
50 км 1/0
[Ci fib]
+4.5 -1.4 65 -0 -0 1007.6 982.4 +9.2
12 18.03 С 2 50 км ясно +1.2 -1.6 82 -2 -2 1009.3 983.8
15 18.03 С 2 50 км ясно +1.0 -1.9 81 -2 -2 1009.4 983.9
18 18.03 СЗ 2 50 км ясно -1.3 -2.9 89 -5 -5 1009.4 983.7
21 18.03 СЗ 2 50 км 1/0
[Ci fib]
-1.5 -3.2 88 -5 -5 1010.7 984.9 -1.7
00 19.03 С 2 50 км 9/0
[Ci]
+3.3 -1.4 71 +1 +5 1011.8 986.4
03 19.03 Ю 2 50 км 3/0
[Ci fib]
+14.1 -4.7 27 +14 +25 опасность
простуды
1010.5 986.1
06 19.03 Ю 4 50 км 9/0
[Ac lent Ci fib]
+15.4 -6.7 21 +15 +17 1009.3 985.1
09 19.03 Ю 4 50 км ясно +12.2 -7.7 24 +11 +11 1009.5 984.9 +15.7
12 19.03 Ю 3 50 км ясно +6.3 -6.5 39 +4 +4 1011.5 986.4
15 19.03 Ю 3 50 км ясно +4.0 -6.0 48 +1 +1 1011.7 986.3
18 19.03 Ю 2 50 км ясно +4.9 -4.5 51 +3 +3 1011.0 985.8
21 19.03 С 3 50 км ясно +0.9 -5.0 65 -3 -3 1010.5 984.9 +0.9
00 20.03 С 1 50 км 6/0
[Ci fib]
+5.4 -4.2 50 +5 +11 1010.1 984.9
03 20.03 ЮВ 2 50 км ясно +11.3 -3.4 36 +11 +23 опасность
простуды
1008.7 984.1
06 20.03 Ю 4 50 км ясно +15.6 -1.2 32 +15 +19 1006.5 982.3
09 20.03 С 2 50 км 10/0
[Ac As]
+8.7 +0.5 56 +7 +7 1007.5 982.7 +15.9
12 20.03 Ю 1 50 км 10/0
[As trans]
+6.3 +0.4 66 +6 +6 1008.1 983.1
15 20.03 Ю 2 50 км 10/0
[As trans]
+6.3 +0.4 66 +4 +4 1006.9 981.9
18 20.03 ЮЗ 4
{10}
50 км 10/0
[As op]
+6.0 -1.8 57 +3 +3 1005.5 980.5
21 20.03 ЮЗ 5
{12}
10 км слаб. дождь 10/10 300 м
[Frnb Ns]
+1.6 -0.2 88 -4 -4 1004.8 979.5 +1.6 1
00 21.03 Ю 2 10 км слаб. дождь 10/10 300 м
[Frnb Ns]
+2.1 -0.0 86 -1 -1 1002.8 977.6 +1.3
03 21.03 штиль 0 4000 м слаб. дождь со снегом 10/10 300 м
[Frnb Ns]
+0.5 -0.6 92 -1 -1 1000.1 974.8
06 21.03 С 3 20 км слаб. дождь 10/10 600 м
[Frnb Ns]
+2.5 +0.9 89 -2 -2 997.1 972.0
09 21.03 СЗ 3 10 км слаб. дождь 10/10 300 м
[Frnb Ns]
+1.4 -1.6 80 -3 -3 998.3 973.1 +2.7 9
12 21.03 СЗ 5
{12}
4000 м слаб. снег {дождь} 10/10 600 м
[Sc]
-2.6 -5.3 82 -9 -9 1003.6 977.9
15 21.03 СЗ 5-10
{12}
50 км {снег} 10/10 600 м
[Sc]
-4.7 -9.6 69 -12 -12 1007.9 981.9
18 21.03 СЗ 10-16
{16}
50 км позёмок {снег} 10/10 600 м
[Sc]
-4.7 -10.6 63 -14 -14 1008.8 982.7
21 21.03 С 7-11
{16}
50 км {метель} 4/4 600 м
[Sc]
-4.5 -10.9 61 -12 -12 1011.1 985.0 -5.4 0.8 1
00 22.03 С 7-12
{13}
50 км в посл. час ливневой снег {метель} 3/3 600 м
[Cb calv]
-2.9 -11.2 53 -10 -9 1013.4 987.4
03 22.03 СЗ 5-12
{12}
50 км слаб. ливневой снег 6/6 600 м
[Cb cap]
-1.3 -9.9 52 -7 -4 1013.6 987.7
06 22.03 С 6-11
{12}
50 км {ливн. осадки} 6/6 600 м
[Cu Sc]
-0.3 -14.1 34 -6 -5 1013.3 987.5
09 22.03 С 5
{12}
50 км 1/1 600 м
[Sc diur, vesp]
-2.4 -16.9 32 -8 -8 1015.2 989.2 +0.1 0.0
12 22.03 С 4
{11}
50 км ясно -4.5 -17.1 37 -10 -10 1017.9 991.6
15 22.03 С 2 50 км 9/0
[Cs]
-6.3 -15.3 49 -10 -10 1018.8 992.3
18 22.03 СЗ 1 50 км 6/0
[Cs]
-7.7 -15.6 53 -10 -10 1018.4 991.8
21 22.03 СВ 1 50 км ясно -10.6 -14.3 74 -13 -13 1017.9 991.0 -10.6
00 23.03 С 1 50 км ясно -5.5 -13.0 55 -7 -0 1016.3 990.0 -11.0
03 23.03 ЮЗ 3
{11}
50 км 8/5 1000 м
[Cu med, cong Ci ing]
+0.6 -11.0 41 -3 +2 1012.7 987.1
06 23.03 Ю 5
{12}
50 км {ливн. осадки} 9/8 600 м
[Cb calv Ac cuf Ci ing]
-0.1 -6.1 64 -6 -5 1010.3 984.7
09 23.03 СЗ 4
{14}
4000 м слаб. ливневой снег 9/8 600 м
[Cb cap Ci ing]
-3.3 -5.4 85 -9 -9 1011.8 985.8 +1.6 1
12 23.03 С 5
{12}
50 км {ливн. осадки} 1/1 600 м
[Sc]
-5.1 -12.9 54 -12 -12 1014.6 988.3
15 23.03 С 5-10
{10}
50 км ясно -6.1 -14.0 54 -13 -13 1015.3 988.9
18 23.03 СЗ 1
{10}
50 км ясно -7.0 -15.8 49 -9 -9 1015.0 988.5
21 23.03 СВ 1 50 км ясно -9.6 -14.9 65 -12 -12 1015.4 988.6 -9.6 0.0 1
00 24.03 В 1 50 км ясно -4.0 -13.1 49 -6 +2 1014.5 988.4
03 24.03 Ю 8-13
{13}
50 км 6/6 600 м
[Cu hum]
+3.0 -8.4 43 -3 -2 1011.1 985.7
06 24.03 Ю 10-17
{17}
50 км 10/6 600 м
[Cu med, cong Ci fib]
+2.2 -6.4 53 -5 -5 1009.3 983.9
09 24.03 Ю 7-10
{17}
50 км 10/0
[Ci fib]
+1.5 -6.3 56 -5 -5 1008.9 983.4 +3.5

 

Местоположение метеостанции Партизанск (Приморский край, Россия): широта 43.15 долгота 133.00 высота над уровнем моря 208 м.

В архиве по умолчанию представлена погода в Партизанске за последнюю неделю. Архивные данные за месяц целиком и за предыдущие месяцы, начиная с января 2011 года, Вы можете получить, выбрав интересующий диапазон дат из раскрывающегося списка и нажав кнопку "Ввод!".


*Определитесь, кто Вы:
робот инопланетянин человек

Внимание! Время в таблицах - всемирное. Для получения местного времени необходимо прибавить поправку, которая равна 10 ч.

Смотрите также архив погоды в соседних городах и на ближайших метеорологических станциях:

Погода в Находке (Приморский край, Россия) (42 км)
Погода в Многоудобном (Приморский край, Россия) (56 км)
Погода в Лазо (Приморский край, Россия) (71 км)
Погода в Преображении (Приморский край, Россия) (78 км)
Погода в Владивостоке (Приморский край, Россия) (89 км)
Погода на Мысе Назимова (Приморский край, Россия) (90 км)
Погода в Анучино (Приморский край, Россия) (91 км)
Погода в Лучегорске (Приморский край, Россия) (117 км)
Погода в Тимирязевском (Приморский край, Россия) (120 км)
Погода в Чугуевке (Приморский край, Россия) (129 км)

Пояснения к столбцам:

Ветер - указаны скорость ветра в м/с - средняя за 10 мин, порывы в срок и между сроками (в фигурных скобках) и направление, откуда дует ветер: С - северный, СВ - северо-восточный, В - восточный, ЮВ - юго-восточный, Ю - южный, ЮЗ - юго-западный, З - западный, СЗ - северо-западный.
Видимость - горизонтальная дальность видимости в метрах или километрах. При видимости от 1 до 10 км при отсутствии осадков обычно наблюдается дымка, при ухудшении видимости до 1 км и менее - туман. В сухую погоду видимость может ухудшаться дымом, пылью или мглою.
Явления - указаны атмосферные явления, наблюдавшиеся в срок или в последний час перед сроком; фигурными скобками обозначены явления, наблюдавшиеся между сроками (за 1-3 часа до срока); квадратными скобками обозначены град или гололедные отложения с указанием их диаметра в мм.
Облачность - указаны через наклонную черту общая и нижняя облачность в баллах и высота нижней границы облаков в метрах; квадратными скобками обозначены формы облаков: Ci - перистые, Cs - перисто-слоистые, Cc - перисто-кучевые, Ac - высококучевые, As - высокослоистые, Sc - слоисто-кучевые, Ns - слоисто-дождевые, Cu - кучевые, Cb - кучево-дождевые. Подробнее классификацию облаков см. в Атласе облаков (PDF).
T - Температура воздуха - температура, измеренная на высоте 2 м над землей.
Td - Температура точки росы - температура, при понижении до которой содержащийся в воздухе водяной пар достигнет насыщения.
f - Относительная влажность воздуха - влажноcть воздуха, измеренная на высоте 2 м над землей.
Te - Эффективная температура - температура, которую ощущает одетый по сезону человек в тени. Характеристика душности погоды. При расчете учитывается влияние влажности воздуха и скорости ветра на теплоощущения человека.
Tes - Эффективная температура на солнце - температура, которую ощущает человек, с поправкой на солнечный нагрев. Характеристика знойности погоды. Зависит от высоты солнца над горизонтом, облачности и скорости ветра. Ночью, в пасмурную погоду, а также при ветре 12 м/с и более поправка равна нулю.
P - Атмосферное давление - приведенное к уровню моря атмосферное давление.
Po - Атмосферное давление - измеренное на уровне метеостанции атмосферное давление.
Tmin - Минимальная температура - минимум температуры воздуха на высоте 2 м над землей.
Tmax - Максимальная температура - максимум температуры воздуха на высоте 2 м над землей.
R - Количество осадков - Количество выпавших осадков за период времени, мм. При наведении курсора мыши на число - период времени, за который выпало указанное количество осадков.
R24 - Количество осадков - Количество выпавших осадков за 24 часа, мм.
S - Снежный покров - Высота снежного покрова, см. При наведении курсора мыши на число - состояние снежного покрова и степень покрытия местности в баллах.